Time,TemperatureF,DewpointF,PressureIn,WindDirection,WindDirectionDegrees,WindSpeedMPH,WindSpeedGustMPH,Humidity,HourlyPrecipIn,Conditions,Clouds,dailyrainin,SoftwareType,DateUTC
2013-09-21 00:14:00,56.0,55.0,30.00,ENE,77,0.0,0.0,95,0.00,,,0.01,,2013-09-21 04:14:00,
2013-09-21 00:24:00,56.0,55.0,30.01,NE,48,0.0,1.0,95,0.00,,,0.01,,2013-09-21 04:24:00,
2013-09-21 00:54:00,56.0,55.0,30.01,SSW,205,0.0,0.0,95,0.00,,,0.01,,2013-09-21 04:54:00,
2013-09-21 01:13:00,55.0,54.0,30.01,SSW,205,0.0,0.0,96,0.00,,,0.01,,2013-09-21 05:13:00,
2013-09-21 01:23:00,55.0,54.0,30.01,SSE,151,0.0,0.0,96,0.00,,,0.01,,2013-09-21 05:23:00,
2013-09-21 01:43:00,55.0,54.0,30.01,ESE,106,0.0,1.0,96,0.00,,,0.01,,2013-09-21 05:43:00,
2013-09-21 01:53:00,55.0,54.0,30.01,ESE,105,0.0,1.0,96,0.00,,,0.01,,2013-09-21 05:53:00,
2013-09-21 02:12:00,55.0,54.0,30.00,ESE,106,0.0,1.0,96,0.00,,,0.01,,2013-09-21 06:12:00,
2013-09-21 02:22:00,55.0,54.0,30.00,NNE,27,0.0,1.0,96,0.00,,,0.01,,2013-09-21 06:22:00,
2013-09-21 02:42:00,54.0,53.0,29.99,NNE,27,0.0,0.0,97,0.00,,,0.01,,2013-09-21 06:42:00,
2013-09-21 02:53:00,54.0,53.0,29.99,NNE,27,0.0,0.0,97,0.00,,,0.01,,2013-09-21 06:53:00,
2013-09-21 03:11:00,54.0,53.0,29.98,NNE,27,0.0,0.0,97,0.00,,,0.01,,2013-09-21 07:11:00,
2013-09-21 03:22:00,53.0,52.0,29.98,NNE,27,0.0,0.0,97,0.00,,,0.01,,2013-09-21 07:22:00,
2013-09-21 03:42:00,53.0,52.0,29.97,NNE,27,0.0,0.0,97,0.00,,,0.01,,2013-09-21 07:42:00,
2013-09-21 03:52:00,53.0,52.0,29.96,NNE,25,0.0,1.0,97,0.00,,,0.01,,2013-09-21 07:52:00,
2013-09-21 04:13:00,53.0,52.0,29.97,NNE,27,0.0,1.0,97,0.00,,,0.01,,2013-09-21 08:13:00,
2013-09-21 04:22:00,53.0,52.0,29.96,NNE,27,0.0,1.0,98,0.00,,,0.01,,2013-09-21 08:22:00,
2013-09-21 04:42:00,52.0,51.0,29.97,ESE,103,0.0,1.0,97,0.00,,,0.01,,2013-09-21 08:42:00,
2013-09-21 04:52:00,52.0,51.0,29.96,East,101,0.0,0.0,97,0.00,,,0.01,,2013-09-21 08:52:00,
2013-09-21 05:11:00,52.0,51.0,29.96,East,99,0.0,0.0,98,0.00,,,0.01,,2013-09-21 09:11:00,
2013-09-21 05:22:00,52.0,51.0,29.96,East,97,0.0,0.0,97,0.00,,,0.01,,2013-09-21 09:22:00,
2013-09-21 05:43:00,51.0,50.0,29.96,East,88,0.0,1.0,98,0.00,,,0.01,,2013-09-21 09:43:00,
2013-09-21 05:54:00,51.0,50.0,29.96,East,87,0.0,0.0,98,0.00,,,0.01,,2013-09-21 09:54:00,
2013-09-21 06:12:00,51.0,50.0,29.96,East,86,0.0,0.0,98,0.00,,,0.01,,2013-09-21 10:12:00,
2013-09-21 06:23:00,51.0,50.0,29.97,East,88,0.0,0.0,97,0.00,,,0.01,,2013-09-21 10:23:00,
2013-09-21 06:42:00,51.0,50.0,29.97,NW,305,0.0,0.0,98,0.00,,,0.01,,2013-09-21 10:42:00,
2013-09-21 06:53:00,50.0,49.0,29.96,NW,308,0.0,0.0,97,0.00,,,0.01,,2013-09-21 10:53:00,
2013-09-21 07:12:00,50.0,49.0,29.96,NNW,329,0.0,0.0,98,0.00,,,0.01,,2013-09-21 11:12:00,
2013-09-21 07:23:00,50.0,49.0,29.96,NNW,331,0.0,1.0,98,0.00,,,0.01,,2013-09-21 11:23:00,
2013-09-21 07:52:00,50.0,49.0,29.96,NNW,342,0.0,1.0,98,0.00,,,0.01,,2013-09-21 11:52:00,
2013-09-21 08:12:00,51.0,50.0,29.96,NNW,345,0.0,1.0,98,0.00,,,0.01,,2013-09-21 12:12:00,
2013-09-21 08:22:00,52.0,52.0,29.96,SSE,158,0.0,0.0,99,0.00,,,0.01,,2013-09-21 12:22:00,
2013-09-21 08:42:00,54.0,54.0,29.96,SSE,155,0.0,0.0,99,0.00,,,0.01,,2013-09-21 12:42:00,
2013-09-21 08:52:00,57.0,56.0,29.95,SE,145,0.0,0.0,98,0.00,,,0.01,,2013-09-21 12:52:00,
2013-09-21 09:11:00,59.0,58.0,29.95,SE,145,0.0,1.0,95,0.00,,,0.01,,2013-09-21 13:11:00,
2013-09-21 09:22:00,59.0,57.0,29.94,SW,226,0.0,3.0,94,0.00,,,0.00,,2013-09-21 13:22:00,
2013-09-21 09:42:00,60.0,58.0,29.94,ESE,103,0.0,3.0,92,0.00,,,0.00,,2013-09-21 13:42:00,
2013-09-21 09:53:00,61.0,59.0,29.93,South,188,1.0,4.0,92,0.00,,,0.00,,2013-09-21 13:53:00,
2013-09-21 10:11:00,62.0,59.0,29.92,West,276,0.0,1.0,90,0.00,,,0.00,,2013-09-21 14:11:00,
2013-09-21 10:22:00,63.0,60.0,29.91,West,261,1.0,5.0,89,0.00,,,0.00,,2013-09-21 14:22:00,
2013-09-21 10:42:00,64.0,60.0,29.91,West,267,3.0,7.0,87,0.00,,,0.00,,2013-09-21 14:42:00,
2013-09-21 10:52:00,64.0,60.0,29.91,ESE,118,1.0,3.0,86,0.00,,,0.00,,2013-09-21 14:52:00,
2013-09-21 11:12:00,65.0,61.0,29.90,NW,312,0.0,3.0,86,0.00,,,0.00,,2013-09-21 15:12:00,
2013-09-21 11:22:00,66.0,61.0,29.89,East,88,1.0,3.0,84,0.00,,,0.00,,2013-09-21 15:22:00,
2013-09-21 11:45:00,66.0,61.0,29.88,WSW,251,0.0,2.0,84,0.00,,,0.00,,2013-09-21 15:45:00,
2013-09-21 11:55:00,67.0,62.0,29.88,West,274,0.0,2.0,83,0.00,,,0.00,,2013-09-21 15:55:00,
2013-09-21 12:14:00,67.0,62.0,29.87,East,98,0.0,2.0,84,0.00,,,0.00,,2013-09-21 16:14:00,
2013-09-21 12:24:00,67.0,62.0,29.87,NE,53,0.0,1.0,84,0.00,,,0.00,,2013-09-21 16:24:00,
2013-09-21 12:34:00,67.0,62.0,29.87,NE,53,0.0,1.0,84,0.00,,,0.00,,2013-09-21 16:34:00,
2013-09-21 12:43:00,67.0,62.0,29.87,NE,53,0.0,1.0,84,0.00,,,0.00,,2013-09-21 16:43:00,
2013-09-21 12:54:00,68.0,63.0,29.86,ESE,103,0.0,3.0,85,0.00,,,0.00,,2013-09-21 16:54:00,
2013-09-21 13:12:00,71.0,65.0,29.85,ESE,120,1.0,7.0,81,0.00,,,0.00,,2013-09-21 17:12:00,
2013-09-21 13:23:00,70.0,64.0,29.84,ESE,108,4.0,9.0,81,0.00,,,0.00,,2013-09-21 17:23:00,
2013-09-21 13:43:00,71.0,65.0,29.83,WSW,240,0.0,8.0,82,0.00,,,0.00,,2013-09-21 17:43:00,
2013-09-21 13:52:00,71.0,64.0,29.83,WSW,238,5.0,12.0,79,0.00,,,0.00,,2013-09-21 17:52:00,
2013-09-21 14:13:00,71.0,63.0,29.82,SW,236,4.0,18.0,76,0.00,,,0.00,,2013-09-21 18:13:00,
2013-09-21 14:22:00,72.0,65.0,29.80,SSW,200,2.0,8.0,78,0.00,,,0.00,,2013-09-21 18:22:00,
2013-09-21 14:42:00,72.0,65.0,29.79,WSW,258,4.0,9.0,78,0.00,,,0.00,,2013-09-21 18:42:00,
2013-09-21 14:52:00,72.0,64.0,29.79,NNE,27,4.0,10.0,77,0.00,,,0.00,,2013-09-21 18:52:00,
2013-09-21 15:12:00,73.0,65.0,29.78,ESE,119,2.0,16.0,76,0.00,,,0.00,,2013-09-21 19:12:00,
2013-09-21 15:22:00,73.0,63.0,29.77,WSW,242,4.0,16.0,72,0.00,,,0.00,,2013-09-21 19:22:00,
2013-09-21 15:42:00,74.0,64.0,29.76,SSW,213,5.0,16.0,71,0.00,,,0.00,,2013-09-21 19:42:00,
2013-09-21 15:52:00,75.0,64.0,29.76,ESE,113,5.0,11.0,68,0.00,,,0.00,,2013-09-21 19:52:00,
2013-09-21 16:12:00,75.0,62.0,29.75,SSW,201,4.0,12.0,63,0.00,,,0.00,,2013-09-21 20:12:00,
2013-09-21 16:22:00,75.0,61.0,29.75,SW,214,6.0,17.0,61,0.00,,,0.00,,2013-09-21 20:22:00,
2013-09-21 16:42:00,76.0,62.0,29.74,SW,221,4.0,15.0,62,0.00,,,0.00,,2013-09-21 20:42:00,
2013-09-21 16:52:00,76.0,64.0,29.73,South,179,6.0,17.0,66,0.00,,,0.00,,2013-09-21 20:52:00,
2013-09-21 17:12:00,75.0,63.0,29.73,SE,129,1.0,12.0,67,0.00,,,0.00,,2013-09-21 21:12:00,
2013-09-21 17:22:00,75.0,63.0,29.73,WSW,237,5.0,23.0,67,0.00,,,0.00,,2013-09-21 21:22:00,
2013-09-21 17:45:00,75.0,64.0,29.73,NE,49,8.0,18.0,68,0.00,,,0.00,,2013-09-21 21:45:00,
2013-09-21 17:54:00,74.0,64.0,29.72,East,88,7.0,19.0,70,0.00,,,0.00,,2013-09-21 21:54:00,
2013-09-21 18:14:00,73.0,64.0,29.72,SSE,159,4.0,16.0,73,0.00,,,0.00,,2013-09-21 22:14:00,
2013-09-21 18:24:00,72.0,63.0,29.72,South,182,7.0,17.0,74,0.00,,,0.00,,2013-09-21 22:24:00,
2013-09-21 18:43:00,72.0,64.0,29.72,SSW,207,10.0,18.0,76,0.00,,,0.00,,2013-09-21 22:43:00,
2013-09-21 18:53:00,71.0,64.0,29.72,SSE,158,5.0,15.0,78,0.00,,,0.00,,2013-09-21 22:53:00,
2013-09-21 19:13:00,71.0,64.0,29.71,SSE,165,4.0,16.0,79,0.00,,,0.00,,2013-09-21 23:13:00,
2013-09-21 19:23:00,71.0,64.0,29.71,SE,127,4.0,12.0,79,0.00,,,0.00,,2013-09-21 23:23:00,
2013-09-21 19:42:00,70.0,64.0,29.71,South,184,2.0,11.0,81,0.00,,,0.00,,2013-09-21 23:42:00,
2013-09-21 19:52:00,70.0,65.0,29.71,SE,134,2.0,14.0,83,0.00,,,0.00,,2013-09-21 23:52:00,
2013-09-21 20:12:00,70.0,65.0,29.71,ESE,103,3.0,11.0,84,0.00,,,0.00,,2013-09-22 00:12:00,
2013-09-21 20:23:00,70.0,66.0,29.71,SE,124,2.0,12.0,86,0.00,,,0.00,,2013-09-22 00:23:00,
2013-09-21 20:43:00,70.0,66.0,29.71,SSE,152,5.0,12.0,86,0.00,,,0.00,,2013-09-22 00:43:00,
2013-09-21 20:52:00,69.0,65.0,29.71,SSE,165,5.0,15.0,87,0.00,,,0.00,,2013-09-22 00:52:00,
2013-09-21 21:12:00,69.0,65.0,29.70,SW,233,4.0,12.0,88,0.00,,,0.00,,2013-09-22 01:12:00,
2013-09-21 21:21:00,69.0,66.0,29.70,East,94,1.0,13.0,89,0.00,,,0.00,,2013-09-22 01:21:00,
2013-09-21 21:42:00,69.0,66.0,29.70,SSE,158,4.0,12.0,91,0.00,,,0.00,,2013-09-22 01:42:00,
2013-09-21 21:52:00,69.0,67.0,29.70,SW,233,4.0,10.0,92,0.00,,,0.00,,2013-09-22 01:52:00,
2013-09-21 22:12:00,68.0,66.0,29.69,SSW,210,2.0,11.0,94,0.06,,,0.06,,2013-09-22 02:12:00,
2013-09-21 22:22:00,68.0,67.0,29.68,SW,217,2.0,8.0,95,0.07,,,0.07,,2013-09-22 02:22:00,
2013-09-21 22:42:00,68.0,67.0,29.68,SSW,200,2.0,7.0,96,0.08,,,0.08,,2013-09-22 02:42:00,
2013-09-21 22:52:00,68.0,67.0,29.68,SSE,162,2.0,10.0,96,0.12,,,0.12,,2013-09-22 02:52:00,
2013-09-21 23:12:00,68.0,67.0,29.68,East,96,1.0,6.0,96,0.08,,,0.14,,2013-09-22 03:12:00,
2013-09-21 23:22:00,68.0,67.0,29.67,East,101,1.0,5.0,97,0.14,,,0.21,,2013-09-22 03:22:00,
2013-09-21 23:45:00,68.0,67.0,29.67,West,266,1.0,4.0,97,0.20,,,0.28,,2013-09-22 03:45:00,
2013-09-21 23:54:00,67.0,66.0,29.66,West,270,2.0,6.0,97,0.22,,,0.34,,2013-09-22 03:54:00,